Preview of NWS' New Version of Forecast
This preview is not operational and should not be used for support decisions.

Regional Weather Roundup (RWR)

Issued by National Weather Service (NWS)

                            
000
ASUS46 KSEW 161310
RWRWA 

WASHINGTON REGIONAL WEATHER ROUNDUP
NATIONAL WEATHER SERVICE SEATTLE WA
600 AM PDT MON SEP 16 2019

NOTE:"FAIR" INDICATES FEW OR NO CLOUDS BELOW 12,000 FEET WITH NO 
SIGNIFICANT WEATHER AND/OR OBSTRUCTIONS TO VISIBILITY.

WAZ507-509-555>559-161400-
SEATTLE, TACOMA, EVERETT, AND VICINITY
  
CITY           SKY/WX    TMP DP  RH WIND       PRES   REMARKS
EVERETT        CLOUDY    54  53  97 SE7       29.80S FOG              
BOEING FIELD   PTCLDY    54  51  90 CALM      29.80R                  
RENTON         PTCLDY    54  53  97 SE5       29.80R FOG              
SEATAC AIRPORT PTCLDY    54  50  86 SE3       29.80R                  
JBLM-MCCHORD   MOCLDY    48  48 100 CALM      29.80R                  
PUYALLUP       MOCLDY    48  48 100 CALM      29.80R FOG              
BREMERTON      FOG       54  53  97 S5        29.80R VSB 3/4          
JBLM-FT LEWIS  PTCLDY    48  48 100 SE3       29.79R                  
TACOMA NARROWS MOCLDY    51  51 100 CALM      29.80R                  
$$
 
WAZ001-503-506-510-514-515-161400-
NORTH INTERIOR
  
CITY           SKY/WX    TMP DP  RH WIND       PRES   REMARKS
BELLINGHAM     MOCLDY    54  50  86 NW3       29.78S FOG              
FRIDAY HARBOR  CLOUDY    55  54  96 CALM      29.79S                  
EASTSOUND        N/A     54  54 100 CALM      29.78R                  
PORT ANGELES   CLOUDY    49  48  97 CALM      29.79R                  
EDIZ HOOK      CLOUDY    49  49  99 CALM      29.79R                  
PORT TOWNSEND  CLOUDY    48  48 100 CALM      29.78R FOG              
NAS WHIDBEY    LGT RAIN  58  53  84 CALM      29.82S                  
ARLINGTON      CLOUDY    56  53  90 CALM      29.80S                  
BURLINGTON     CLOUDY    55  55 100 CALM      29.79S                  
$$
 
WAZ020-022-039-040-504-511-512-161400-
SOUTHWEST INTERIOR
  
CITY           SKY/WX    TMP DP  RH WIND       PRES   REMARKS
SHELTON        CLOUDY    53  51  93 CALM      29.77S FOG              
OLYMPIA        CLOUDY    54  52  93 SW7       29.79S                  
CHEHALIS       CLOUDY    55  55 100 VRB5      29.80S                  
KELSO          PTCLDY    54  53  97 CALM      29.81R                  
VANCOUVER      CLOUDY    58  53  84 CALM      29.80S                  
SCAPPOOSE, OR  MOCLDY    50  49  96 CALM      29.80R FOG              
PORTLAND, OR   MOCLDY    58  54  86 S5        29.81R                  
$$
 
WAZ021-516-517-161400-
WASHINGTON COAST
  
CITY           SKY/WX    TMP DP  RH WIND       PRES   REMARKS
FORKS          PTCLDY    50  49  96 E7        29.76S                  
HOQUIAM        MOCLDY    54  53  97 NE5       29.78S                  
ASTORIA, OR    LGT RAIN  54  52  93 CALM      29.79R                  
$$
 
WAZ019-023-024-040-567>569-161400-
CASCADE MOUNTAINS AND COLUMBIA GORGE
  
CITY           SKY/WX    TMP DP  RH WIND       PRES   REMARKS
STAMPEDE PASS  NOT AVBL                                               
TROUTDALE, OR  CLOUDY    59  53  80 CALM      29.80S                  
HOOD RIVER, OR DRIZZLE   54  52  94 CALM      29.81S                  
THE DALLES, OR CLOUDY    55  53  93 W3        29.78S                  
$$

WAZ026-027-041>044-520-521-161400-
EAST SLOPES
  
CITY           SKY/WX    TMP DP  RH WIND       PRES   REMARKS
OMAK           PTCLDY    51  47  86 CALM      29.76R                  
WENATCHEE      MOCLDY    52  46  80 W6        29.75R                  
ELLENSBURG     FOG       48  45  89 CALM      29.76F VSB 1/4          
YAKIMA         MOCLDY    47  44  90 W6        29.77R                  
SUNNYSIDE ARPT CLOUDY    53  51  96 CALM      29.78R                  
YAKIMA TC      PTSUNNY   46  44  91 CALM      29.75S                  
$$

WAZ028-034-035-161400-
COLUMBIA BASIN
  
CITY           SKY/WX    TMP DP  RH WIND       PRES   REMARKS
EPHRATA        CLOUDY    52  50  93 NE6       29.74S                  
MOSES LAKE     CLOUDY    55  50  83 S3        29.76R                  
PASCO          LGT RAIN  57  55  93 SW5       29.77R                  
RICHLAND ARPT  CLOUDY    59  53  83 S8        29.77                   
HERMISTON, OR  LGT RAIN  57  53  86 S5        29.78R                  
$$

WAZ036>038-161400-
NORTHEAST WASHINGTON
  
CITY           SKY/WX    TMP DP  RH WIND       PRES   REMARKS
SPOKANE GEIGER CLOUDY    54  43  66 S5        29.78F                  
SPOKANE FELTS  CLOUDY    58  45  62 S6        29.79S                  
FAIRCHILD AFB  CLOUDY    53  47  80 S3        29.78F                  
COEURDALENE,ID CLOUDY    54  45  71 NW3       29.79S                  
DEER PARK      CLOUDY    54  47  77 S3        29.79S                  
$$

WAZ029>033-161400-
SOUTHEAST WASHINGTON
  
CITY           SKY/WX    TMP DP  RH WIND       PRES   REMARKS
PULLMAN        MOCLDY    51  43  74 CALM      29.80F                  
LEWISTON, ID   MOCLDY    57  44  62 S5        29.76F                  
WALLA WALLA    CLOUDY    58  46  64 SW3       29.78S                  
PENDLETON, OR  LGT RAIN  54  47  77 CALM      29.78S                  
$$